Weather History for Idabel, OK

Change the Weather History Date:

Monday, March 25, 2013

  Actual Average (KDEQ) Record (KDEQ)
Temperature  
Mean Temperature 39 °F 55 °F  
Max Temperature 50 °F 68 °F 84 °F (1963)
Min Temperature 28 °F 42 °F 25 °F (1966)
Degree Days  
Heating Degree Days 26 10  
Month to date heating degree days 320  
Since 1 July heating degree days 2811  
Cooling Degree Days 0 0  
Month to date cooling degree days 0  
Year to date cooling degree days 2  
Moisture  
Dew Point 19 °F    
Average Humidity 48    
Maximum Humidity 74    
Minimum Humidity 24    
Precipitation  
Precipitation 0.00 in 0.18 in 2.21 in (1994)
Month to date precipitation 3.51  
Year to date precipitation 10.51  
Snow  
Snow 0.00 in - - ()
Month to date snowfall  
Since 1 July snowfall  
Snow Depth -    
Sea Level Pressure  
Sea Level Pressure 30.26 in    
Wind  
Wind Speed 11 mph (NW)    
Max Wind Speed 22 mph    
Max Gust Speed 31 mph    
Visibility 10 miles    
Events      
T = Trace of Precipitation, MM = Missing Value Source: NWS Daily Summary

Daily Weather History Graph

Daily Weather History Graph

Search for Another Location

Airport:

Trip Planner

Search our weather history database for the weather conditions in past years. The results will help you decide how hot, cold, wet, or windy it might be!

Date:

Astronomy

Mar. 25, 2013 Rise Set
Actual Time 7:15 AM CDT 7:35 PM CDT
Civil Twilight 6:50 AM CDT 8:00 PM CDT
Nautical Twilight 6:21 AM CDT 8:29 PM CDT
Astronomical Twilight 5:52 AM CDT 8:59 PM CDT
Moon 6:10 PM CDT (3/25) 5:55 AM CDT (3/25)
Length of Visible Light 13h 09m
Length of Day
12h 19m
Waxing Gibbous, 96% of the Moon is Illuminated
Mar 25
Waxing Gibbous
Mar 27
Full
Apr 2
Last Quarter
Apr 10
New
Apr 18
First Quarter

Hourly Weather History & Observations

Time (CDT) Temp. Windchill Dew Point Humidity Pressure Visibility Wind Dir Wind Speed Gust Speed Precip Events Conditions
12:15 AM 35.6 °F 27.1 °F 23.0 °F 60% 30.14 in 10.0 mi NNW 12.7 mph 17.3 mph N/A   Clear
12:35 AM 33.8 °F 25.3 °F 23.0 °F 65% 30.15 in 10.0 mi North 11.5 mph - N/A   Clear
12:55 AM 33.8 °F 24.3 °F 21.2 °F 60% 30.16 in 10.0 mi NNW 13.8 mph 20.7 mph N/A   Clear
1:15 AM 33.8 °F 25.8 °F 19.4 °F 56% 30.17 in 10.0 mi North 10.4 mph - N/A   Clear
1:55 AM 32.0 °F 24.8 °F 21.2 °F 64% 30.18 in 10.0 mi NNW 8.1 mph - N/A   Clear
2:15 AM 32.0 °F 24.2 °F 19.4 °F 60% 30.18 in 10.0 mi NNW 9.2 mph - N/A   Clear
2:35 AM 32.0 °F 24.8 °F 19.4 °F 60% 30.19 in 10.0 mi NW 8.1 mph - N/A   Clear
2:55 AM 32.0 °F 25.6 °F 19.4 °F 60% 30.19 in 10.0 mi NW 6.9 mph - N/A   Clear
3:15 AM 32.0 °F 24.8 °F 19.4 °F 60% 30.20 in 10.0 mi NW 8.1 mph - N/A   Clear
3:35 AM 32.0 °F 25.6 °F 19.4 °F 60% 30.19 in 10.0 mi NNW 6.9 mph - N/A   Clear
3:55 AM 32.0 °F 24.2 °F 19.4 °F 60% 30.19 in 10.0 mi NW 9.2 mph - N/A   Clear
4:15 AM 32.0 °F 25.6 °F 19.4 °F 60% 30.20 in 10.0 mi NW 6.9 mph - N/A   Clear
4:35 AM 30.2 °F 25.4 °F 19.4 °F 64% 30.20 in 10.0 mi NW 4.6 mph - N/A   Clear
4:55 AM 30.2 °F 24.3 °F 19.4 °F 64% 30.20 in 10.0 mi NW 5.8 mph - N/A   Clear
5:15 AM 30.2 °F 24.3 °F 19.4 °F 64% 30.20 in 10.0 mi NW 5.8 mph - N/A   Clear
5:35 AM 30.2 °F 24.3 °F 21.2 °F 69% 30.21 in 10.0 mi WNW 5.8 mph - N/A   Clear
5:55 AM 30.2 °F 25.4 °F 21.2 °F 69% 30.20 in 10.0 mi WNW 4.6 mph - N/A   Clear
6:15 AM 30.2 °F 24.3 °F 21.2 °F 69% 30.20 in 10.0 mi WNW 5.8 mph - N/A   Clear
6:35 AM 30.2 °F 23.4 °F 21.2 °F 69% 30.20 in 10.0 mi WNW 6.9 mph - N/A   Clear
6:55 AM 30.2 °F 24.3 °F 21.2 °F 69% 30.22 in 10.0 mi WNW 5.8 mph - N/A   Clear
7:15 AM 28.4 °F 21.2 °F 21.2 °F 74% 30.22 in 10.0 mi WNW 6.9 mph - N/A   Clear
7:35 AM 28.4 °F 22.2 °F 21.2 °F 74% 30.23 in 10.0 mi West 5.8 mph - N/A   Clear
7:55 AM 30.2 °F 22.6 °F 21.2 °F 69% 30.24 in 10.0 mi West 8.1 mph - N/A   Clear
8:15 AM 32.0 °F 26.4 °F 23.0 °F 69% 30.25 in 10.0 mi West 5.8 mph - N/A   Clear
8:55 AM 33.8 °F 25.3 °F 23.0 °F 65% 30.27 in 10.0 mi West 11.5 mph - N/A   Clear
9:15 AM 35.6 °F 28.0 °F 23.0 °F 60% 30.27 in 10.0 mi WNW 10.4 mph 17.3 mph N/A   Clear
9:35 AM 37.4 °F 29.3 °F 23.0 °F 56% 30.28 in 10.0 mi NW 12.7 mph 19.6 mph N/A   Clear
9:55 AM 39.2 °F 30.2 °F 23.0 °F 52% 30.28 in 10.0 mi NW 17.3 mph - N/A   Clear
10:15 AM 41.0 °F 31.4 °F 21.2 °F 45% 30.29 in 10.0 mi NW 21.9 mph 27.6 mph N/A   Clear
10:35 AM 41.0 °F 34.7 °F 19.4 °F 42% 30.30 in 10.0 mi NW 10.4 mph 20.7 mph N/A   Clear
10:55 AM 42.8 °F 34.5 °F 17.6 °F 36% 30.30 in 10.0 mi NW 18.4 mph 25.3 mph N/A   Clear
11:15 AM 44.6 °F 36.6 °F 17.6 °F 34% 30.30 in 10.0 mi NW 19.6 mph 26.5 mph N/A   Clear
11:35 AM 44.6 °F 36.1 °F 15.8 °F 31% 30.31 in 10.0 mi NNW 21.9 mph 29.9 mph N/A   Clear
11:55 AM 44.6 °F 36.1 °F 15.8 °F 31% 30.32 in 10.0 mi NNW 21.9 mph 28.8 mph N/A   Clear
12:15 PM 44.6 °F 37.4 °F 17.6 °F 34% 30.31 in 10.0 mi NW 16.1 mph 24.2 mph N/A   Clear
12:35 PM 44.6 °F 37.8 °F 17.6 °F 34% 30.31 in 10.0 mi WNW 15.0 mph 26.5 mph N/A   Clear
12:55 PM 44.6 °F 37.2 °F 17.6 °F 34% 30.30 in 10.0 mi NNW 17.3 mph 27.6 mph N/A   Clear
1:15 PM 46.4 °F 39.2 °F 17.6 °F 32% 30.30 in 10.0 mi NW 18.4 mph 28.8 mph N/A   Clear
1:35 PM 46.4 °F 40.1 °F 15.8 °F 29% 30.29 in 10.0 mi WNW 15.0 mph 31.1 mph N/A   Clear
1:55 PM 46.4 °F 41.1 °F 15.8 °F 29% 30.29 in 10.0 mi NW 11.5 mph 21.9 mph N/A   Clear
2:15 PM 48.2 °F - 17.6 °F 30% 30.28 in 10.0 mi NW 20.7 mph 26.5 mph N/A   Clear
2:35 PM 50.0 °F - 17.6 °F 28% 30.28 in 10.0 mi NW 13.8 mph 25.3 mph N/A   Clear
2:55 PM 50.0 °F - 17.6 °F 28% 30.27 in 10.0 mi NNW 11.5 mph 24.2 mph N/A   Clear
3:15 PM 50.0 °F - 15.8 °F 26% 30.27 in 10.0 mi NW 12.7 mph 27.6 mph N/A   Clear
3:35 PM 50.0 °F - 14.0 °F 24% 30.26 in 10.0 mi NW 12.7 mph 23.0 mph N/A   Clear
3:55 PM 50.0 °F - 15.8 °F 26% 30.26 in 10.0 mi NNW 12.7 mph 24.2 mph N/A   Clear
4:15 PM 50.0 °F - 14.0 °F 24% 30.26 in 10.0 mi NNW 19.6 mph 26.5 mph N/A   Clear
4:35 PM 50.0 °F - 14.0 °F 24% 30.26 in 10.0 mi WNW 17.3 mph 24.2 mph N/A   Clear
4:55 PM 50.0 °F - 14.0 °F 24% 30.25 in 10.0 mi NW 18.4 mph 21.9 mph N/A   Clear
5:15 PM 50.0 °F - 14.0 °F 24% 30.25 in 10.0 mi NNW 19.6 mph 25.3 mph N/A   Clear
5:35 PM 50.0 °F - 15.8 °F 26% 30.25 in 10.0 mi North 16.1 mph 20.7 mph N/A   Clear
5:55 PM 50.0 °F - 14.0 °F 24% 30.26 in 10.0 mi NNW 18.4 mph 23.0 mph N/A   Clear
6:15 PM 48.2 °F - 15.8 °F 27% 30.26 in 10.0 mi North 10.4 mph 18.4 mph N/A   Clear
6:35 PM 46.4 °F 40.4 °F 17.6 °F 32% 30.27 in 10.0 mi North 13.8 mph 18.4 mph N/A   Clear
6:55 PM 46.4 °F 40.7 °F 17.6 °F 32% 30.27 in 10.0 mi North 12.7 mph 18.4 mph N/A   Clear
7:15 PM 44.6 °F 39.2 °F 17.6 °F 34% 30.28 in 10.0 mi North 10.4 mph 17.3 mph N/A   Clear
7:35 PM 42.8 °F 37.5 °F 17.6 °F 36% 30.29 in 10.0 mi NNW 9.2 mph - N/A   Clear
7:55 PM 41.0 °F 35.2 °F 17.6 °F 39% 30.30 in 10.0 mi NNW 9.2 mph - N/A   Clear
8:15 PM 41.0 °F 35.8 °F 17.6 °F 39% 30.31 in 10.0 mi NNW 8.1 mph - N/A   Clear
8:35 PM 39.2 °F 34.2 °F 19.4 °F 45% 30.32 in 10.0 mi North 6.9 mph - N/A   Clear
8:55 PM 37.4 °F 32.8 °F 19.4 °F 48% 30.33 in 10.0 mi North 5.8 mph - N/A   Clear
9:15 PM 35.6 °F 29.9 °F 19.4 °F 52% 30.34 in 10.0 mi North 6.9 mph - N/A   Clear
9:35 PM 35.6 °F 29.9 °F 19.4 °F 52% - 10.0 mi North 6.9 mph - N/A   Clear
9:55 PM 33.8 °F 28.6 °F 19.4 °F 56% 30.35 in 10.0 mi North 5.8 mph - N/A   Clear
10:15 PM 33.8 °F 28.6 °F 21.2 °F 60% 30.36 in 10.0 mi North 5.8 mph - N/A   Clear
10:35 PM 33.8 °F 27.0 °F 21.2 °F 60% 30.37 in 10.0 mi NNW 8.1 mph - N/A   Clear
10:55 PM 33.8 °F 28.6 °F 21.2 °F 60% 30.38 in 10.0 mi NNW 5.8 mph - N/A   Clear
11:15 PM 32.0 °F 27.5 °F 21.2 °F 64% 30.38 in 10.0 mi NNW 4.6 mph - N/A   Clear
11:35 PM 32.0 °F 27.5 °F 21.2 °F 64% 30.38 in 10.0 mi North 4.6 mph - N/A   Clear
11:55 PM 32.0 °F 28.7 °F 19.4 °F 60% 30.38 in 10.0 mi NNW 3.5 mph - N/A   Clear